Temp
11 11 11 10 10 10 10 10 10 9 9 10 10 10 11 12 13 14 16 12 12 12 13 16 19 20 22 21 20 21 25 25 25 25 25 22 20 20 19 19 19 18 19 16 15
10 10 10 10 10 10 10 9 10 9 9 10 10 10 11 12 14 16 11 10 11 12 15 19 22 23 23 21 21 23 25 25 24 23 23 21 22 19 19 19 19 17 14 15 12
10 10 10 10 10 10 9 9 9 9 9 10 10 10 11 12 16 15 11 10 12 14 14 17 20 23 22 22 20 20 22 20 19 18 22 21 21 20 21 20 22 20 16 14 13
10 10 10 9 10 9 9 9 9 9 9 10 11 11 12 13 19 13 12 13 14 15 15 18 22 23 23 22 19 20 16 18 16 17 20 20 21 19 21 21 19 20 18 14 14
9 10 10 9 10 9 9 9 9 8 9 10 11 12 12 16 16 11 12 13 14 14 17 20 23 23 22 20 20 19 17 16 15 16 18 17 18 19 18 19 18 18 17 15 15
9 9 9 9 9 9 9 9 8 8 9 10 11 12 13 17 11 11 12 12 13 14 16 18 22 22 20 18 19 18 17 16 16 16 16 18 17 16 20 20 17 16 16 16 16
9 9 9 9 9 9 9 9 8 8 9 10 11 11 15 14 11 11 11 11 12 13 16 14 18 21 20 17 18 18 17 17 17 16 16 16 18 18 19 19 18 17 17 17 16
8 8 8 9 9 9 9 8 8 9 9 10 11 12 16 10 11 12 12 13 13 13 13 14 15 16 18 17 18 20 20 20 17 16 14 16 23 22 19 17 18 18 18 17 16
8 8 8 8 9 9 9 8 8 9 10 11 12 14 15 11 12 11 11 14 13 13 13 14 16 15 16 19 20 19 22 21 18 17 16 16 21 19 18 17 19 18 18 17 17
8 7 8 8 8 8 8 8 9 9 10 11 12 14 12 13 11 10 11 12 15 15 16 17 18 17 18 19 20 21 21 22 22 17 15 17 18 20 17 17 18 19 19 18 17
8 8 7 8 8 8 8 9 11 12 13 14 14 13 12 11 10 12 11 13 15 17 19 17 18 18 19 20 19 23 24 23 20 15 17 18 19 22 21 17 18 19 19 19 18
8 8 7 8 8 7 9 12 13 12 11 11 11 11 11 11 13 12 12 15 16 18 16 17 18 17 18 17 19 21 22 21 16 15 15 20 19 21 22 20 19 19 20 20 19
8 8 7 7 8 7 9 11 9 10 14 11 11 12 12 11 12 12 12 14 17 16 17 19 16 14 16 16 17 18 20 19 19 15 16 16 21 22 22 22 21 20 20 20 20
8 8 7 7 8 9 10 10 9 9 15 13 11 11 11 12 12 10 10 13 14 17 17 16 12 14 15 15 15 15 15 17 16 18 20 17 19 26 25 20 20 20 20 19 20
7 8 7 8 10 9 11 9 9 11 16 12 10 9 11 12 11 10 9 12 14 13 14 13 12 13 14 13 12 13 14 15 16 18 16 18 18 23 23 21 22 20 21 19 19
7 7 7 7 8 10 9 9 10 14 15 11 10 10 11 11 10 11 11 12 13 13 13 10 10 10 10 9 10 12 11 13 15 16 15 19 17 23 22 21 24 26 23 21 18
7 7 7 8 10 8 8 11 14 14 13 11 10 10 12 10 10 11 11 11 13 13 14 11 10 8 9 10 10 7 11 15 15 15 17 13 13 18 22 19 22 22 22 19 14
7 7 7 8 8 7 9 12 13 17 15 11 11 11 11 11 11 10 11 11 11 12 14 14 12 9 8 9 11 8 9 16 18 18 20 10 14 20 17 16 18 13 13 13 12
6 6 7 6 7 7 11 11 16 17 13 11 11 12 11 11 11 11 12 13 13 11 13 13 11 6 6 6 8 9 11 11 13 10 16 18 16 18 18 17 15 14 13 13 13
6 5 7 6 7 8 11 12 15 13 12 12 15 14 13 11 11 11 12 12 12 11 7 14 10 7 6 6 6 7 8 13 13 16 18 19 19 20 18 17 14 12 12 13 12
7 7 5 6 7 9 10 12 13 12 12 12 15 13 15 12 12 12 13 12 13 10 11 10 11 6 7 7 9 8 10 8 10 15 18 19 21 19 20 18 16 14 11 10 10
6 8 4 6 8 10 10 11 11 11 11 12 13 14 13 13 12 13 13 13 11 9 10 10 10 9 8 2 2 4 11 11 16 13 12 13 19 16 18 16 14 14 9 10 7
6 7 3 3 8 10 10 10 10 10 10 11 12 13 12 11 10 13 12 9 10 10 10 10 11 10 8 5 4 5 7 7 7 9 13 17 20 13 15 15 14 13 13 8 8
6 6 3 3 10 10 9 9 10 10 11 11 11 11 10 11 11 10 10 7 9 10 9 9 10 12 16 13 9 6 6 7 9 13 15 16 18 16 17 16 16 16 14 12 8
7 8 7 5 6 8 9 10 9 9 9 10 10 11 10 10 11 10 10 6 6 7 7 8 9 11 12 9 10 10 8 6 8 11 14 16 17 18 19 18 18 17 17 15 11
5 6 7 10 8 8 9 9 10 10 7 9 8 10 10 9 11 9 8 7 11 6 6 4 10 8 9 7 9 9 9 7 7 10 10 11 11 14 15 16 16 16 16 14 13
7 7 7 8 8 8 8 9 10 10 10 10 9 9 7 10 13 11 9 8 8 7 6 5 8 8 11 7 7 10 10 10 8 7 10 11 13 13 13 12 13 14 14 14 14
Height
802 802 802 804 806 806 807 808 809 809 810 809 808 807 806 805 804 805 805 808 806 803 801 802 801 800 799 803 805 804 807 810 810 810 810 822 829 833 838 838 842 846 847 853 857
802 801 802 803 804 806 807 808 809 809 809 809 808 807 806 805 806 805 807 805 804 802 803 802 798 798 800 806 807 804 805 803 807 809 814 823 823 834 837 839 842 848 854 855 860
801 802 802 803 804 805 808 809 810 810 809 809 808 807 806 805 805 805 805 803 801 801 803 803 801 797 802 805 814 815 815 821 826 827 817 824 825 831 831 838 831 839 849 855 860
802 802 803 803 803 805 806 808 809 809 809 809 808 807 805 806 800 806 804 802 801 802 804 803 800 797 801 807 817 821 831 828 833 832 825 829 828 836 831 832 836 837 844 854 858
804 803 804 804 804 805 807 808 807 808 807 808 808 807 807 804 804 806 804 803 803 803 804 802 797 796 803 813 815 822 831 834 837 836 832 836 837 835 836 836 840 842 846 851 856
805 805 805 805 805 805 807 807 806 807 807 807 807 807 808 801 807 806 804 804 804 805 805 804 798 799 808 817 818 826 831 836 837 839 841 837 839 844 828 832 840 844 846 849 852
802 803 805 805 806 806 806 807 806 806 806 807 806 807 806 806 808 807 806 805 806 806 806 807 806 803 809 822 825 828 834 835 838 839 842 842 837 834 830 833 838 842 844 847 850
800 801 803 804 806 807 806 806 806 805 805 805 806 808 804 808 808 809 808 808 808 807 807 809 810 812 813 822 826 822 824 828 836 840 846 845 820 816 828 834 835 838 840 844 847
800 802 801 804 805 806 807 807 806 806 806 806 807 808 804 808 809 810 809 810 809 809 809 810 811 818 823 817 821 824 815 821 835 838 841 843 823 825 830 833 831 834 836 840 844
797 799 802 802 805 806 808 808 807 807 809 807 807 808 809 806 809 811 811 811 810 810 810 809 809 817 815 815 822 815 818 813 814 836 843 837 831 821 829 831 829 828 831 834 837
798 797 801 802 804 806 809 810 812 810 807 803 802 805 806 809 811 812 811 811 810 808 805 811 812 813 808 805 809 796 799 805 817 840 837 830 825 814 814 827 825 823 824 826 830
795 796 799 802 804 807 808 805 801 802 805 808 808 807 808 809 809 811 812 810 808 805 811 812 811 812 807 814 812 808 808 813 836 841 841 821 821 810 807 809 815 816 817 818 823
795 796 797 802 804 807 806 805 803 802 796 807 806 805 809 810 808 811 813 810 805 809 807 803 815 822 817 820 819 818 813 820 822 838 837 836 809 799 795 797 804 806 809 811 813
791 796 795 801 807 804 805 805 803 805 789 797 804 806 810 808 810 815 816 813 811 805 807 813 829 823 821 822 825 829 832 827 833 828 820 831 822 780 783 798 798 797 800 801 804
789 793 797 797 797 800 801 802 804 804 786 797 805 809 809 807 812 815 816 814 809 814 817 819 828 825 824 831 836 834 835 833 834 827 835 828 831 789 784 792 786 788 788 793 798
788 790 795 799 799 798 799 802 805 795 781 797 803 806 806 809 812 814 814 816 816 816 820 832 838 836 840 847 844 841 845 842 837 833 839 814 827 784 784 786 772 766 773 781 792
786 789 793 797 796 797 800 802 794 781 781 794 798 802 798 807 812 809 811 813 807 814 812 830 836 847 845 842 849 855 841 836 841 843 819 835 840 792 771 777 773 773 776 784 796
785 787 791 795 795 797 800 795 781 753 765 788 792 797 796 802 802 810 808 807 808 805 800 809 824 840 845 843 833 850 846 817 815 815 796 855 820 781 777 779 777 789 792 795 799
784 787 790 792 793 797 796 786 757 750 766 782 791 787 793 799 801 806 800 796 795 802 798 802 820 851 854 855 849 844 841 837 829 849 816 792 798 782 770 775 779 785 790 791 793
780 784 786 789 793 796 790 773 758 762 770 773 760 766 772 787 796 797 794 788 791 797 811 793 824 849 856 856 856 851 849 831 830 818 805 783 781 773 773 769 776 783 784 787 791
777 781 783 788 794 791 778 767 764 767 769 771 758 767 762 779 781 786 781 785 784 798 801 804 803 855 851 846 834 847 834 847 834 809 793 780 763 759 756 764 768 773 782 786 788
770 773 782 784 789 778 770 767 766 765 769 766 764 764 766 771 775 776 775 776 788 799 798 802 807 823 832 862 863 856 821 822 798 813 814 807 771 765 762 766 771 772 783 784 789
764 769 780 781 772 763 766 765 769 766 766 767 763 762 769 772 782 771 774 791 791 792 792 798 797 815 833 851 858 848 834 834 838 827 799 788 759 774 769 770 772 775 777 784 786
758 766 778 780 758 754 761 765 764 764 762 762 764 769 774 772 774 781 782 798 794 794 798 799 795 781 765 778 803 834 828 828 821 799 782 770 761 770 767 769 768 771 775 779 784
742 738 743 758 761 759 756 753 759 761 765 761 767 761 768 774 771 776 783 800 803 801 803 803 797 789 785 799 799 798 807 822 816 795 782 754 758 761 761 763 764 766 768 772 777
734 734 738 729 746 753 751 745 744 752 762 760 767 760 761 767 764 779 784 791 777 805 808 813 791 801 798 806 803 800 794 806 805 795 792 784 770 774 766 763 766 768 767 767 770
723 728 731 730 735 743 733 735 737 743 746 747 755 763 770 761 756 765 775 780 787 795 802 809 797 799 778 804 807 790 772 781 792 793 781 779 737 768 764 765 765 763 763 763 760
Wind_Speed
8 7 7 8 8 4 5 5 5 4 4 3 1 5 7 1 1 1 3 6 8 14 8 4 2 3 5 4 5 2 2 4 5 11 8 14 9 6 3 6 4 5 2 4 20
7 7 8 9 7 5 4 5 4 5 5 4 3 4 6 2 1 4 3 10 10 7 2 5 6 7 4 3 3 2 3 1 3 6 8 16 10 11 6 7 7 8 5 10 18
9 7 7 8 7 8 6 5 6 5 5 4 4 5 7 1 3 2 9 11 4 1 2 3 3 2 5 3 4 4 1 4 2 4 6 15 9 9 6 8 9 11 12 16 17
8 8 7 8 6 7 6 6 6 5 5 4 4 6 6 2 2 3 10 5 1 4 0 3 5 4 3 4 3 3 4 2 2 2 8 12 8 5 10 4 6 1 18 18 17
5 6 9 9 9 8 7 7 4 5 5 4 4 7 3 4 3 7 8 4 3 2 1 3 7 5 6 6 4 6 5 5 5 4 6 5 5 1 9 5 3 6 14 15 16
6 9 11 10 10 9 8 6 5 4 5 4 3 6 4 5 2 8 7 4 2 1 1 1 1 6 9 5 2 6 10 8 5 6 4 3 2 2 6 12 7 8 11 13 16
7 8 12 11 9 10 8 7 6 5 5 4 1 4 5 3 3 6 6 5 4 2 3 2 3 0 8 8 10 13 9 8 4 3 2 2 6 8 4 9 11 10 10 12 15
10 10 11 11 10 10 7 6 5 4 4 3 1 2 1 0 2 5 4 5 7 8 11 10 10 8 4 13 7 4 5 5 5 5 2 3 2 13 9 10 12 12 12 12 14
10 12 11 12 10 10 8 5 5 4 4 2 1 4 2 1 1 4 5 2 3 5 6 4 4 5 5 8 5 5 5 8 5 6 3 8 4 6 7 9 11 12 13 13 14
5 10 14 14 11 10 7 5 4 3 2 1 1 4 3 3 2 2 3 3 1 5 4 2 2 3 4 6 7 8 5 6 8 8 7 8 15 3 8 11 12 13 14 15 16
6 6 10 16 13 12 10 6 4 4 3 3 3 3 4 3 2 3 3 0 2 4 5 3 4 8 13 12 2 7 10 8 6 4 7 13 15 12 12 11 14 15 16 16 18
9 7 12 14 15 13 11 5 4 2 4 2 2 4 3 2 3 3 3 4 6 7 4 4 7 3 5 4 2 4 6 4 3 4 4 5 15 15 16 18 17 17 17 18 16
11 9 13 14 14 12 13 6 4 1 1 4 2 2 3 3 1 4 3 2 4 7 10 6 4 4 5 6 5 2 5 4 3 5 4 6 11 14 14 17 16 18 15 17 19
12 10 15 17 10 11 11 8 4 3 3 8 6 4 3 3 2 1 2 1 3 8 6 1 3 4 6 4 1 4 2 4 6 4 4 2 5 11 12 11 16 18 17 18 19
15 12 18 24 4 13 4 7 4 2 4 8 5 3 4 3 6 2 1 2 5 5 4 5 5 7 4 3 2 4 3 5 1 4 3 7 4 6 5 11 16 19 20 19 18
16 16 20 18 4 8 8 9 3 4 7 6 5 6 7 4 2 4 3 2 2 4 8 5 2 4 4 6 0 13 5 5 1 1 5 10 6 10 9 9 14 14 17 13 13
18 17 23 18 2 11 12 8 5 7 4 6 6 8 10 6 5 6 8 8 7 7 7 4 3 3 3 7 3 3 4 2 2 4 6 3 4 7 6 5 4 1 6 7 6
18 20 22 14 6 11 11 6 10 6 4 4 5 10 7 9 5 7 8 8 9 4 6 9 5 9 5 0 3 5 2 4 6 6 4 3 8 5 9 6 4 4 3 4 8
19 17 15 12 11 11 8 9 7 7 10 12 11 7 8 7 4 8 11 7 9 12 6 8 4 3 3 1 2 6 6 2 2 1 3 6 7 11 14 12 10 9 9 10 9
19 10 11 15 11 10 7 11 6 1 6 8 7 12 13 14 10 13 13 5 6 10 1 6 5 0 3 1 1 2 2 3 3 5 8 5 7 8 3 9 5 8 12 9 7
14 5 13 16 10 6 9 8 5 5 6 8 5 6 7 10 12 10 7 3 9 9 5 3 3 4 4 8 7 5 4 3 2 3 5 7 5 6 7 2 7 6 5 7 7
9 5 10 21 8 8 11 7 2 8 7 6 4 3 8 11 12 11 10 3 9 12 10 4 5 5 2 2 1 3 3 6 5 6 4 4 7 2 3 1 1 1 2 1 3
7 3 5 7 10 12 6 10 3 7 7 7 8 4 3 8 5 9 6 3 10 9 7 9 5 5 2 2 0 6 7 3 2 1 8 6 4 2 3 2 1 3 1 3 1
5 6 3 4 10 13 15 10 8 8 4 5 3 5 4 4 4 6 6 2 7 6 2 4 2 3 6 3 6 6 10 14 9 7 7 18 13 7 3 4 5 4 5 6 5
6 6 10 10 14 11 14 9 14 8 6 7 5 8 6 4 7 4 4 3 2 4 1 2 4 4 2 3 3 4 7 16 19 20 11 14 18 12 9 8 10 3 7 4 5
5 4 6 4 22 21 18 15 18 17 10 6 6 14 8 6 6 7 6 4 3 5 4 1 2 3 3 4 4 5 12 16 21 16 22 23 30 6 15 15 13 11 12 13 8
14 9 4 8 17 17 21 18 18 14 10 9 14 5 8 15 7 5 7 4 5 7 7 6 5 4 9 4 1 10 20 19 8 11 14 18 31 7 12 14 14 16 16 15 21
Wind_Direction
181 174 186 180 159 171 163 189 188 196 209 231 313 2 3 35 44 290 79 336 321 323 330 285 217 141 94 76 34 327 210 236 191 184 148 156 158 176 48 131 179 144 330 74 153
190 179 176 176 167 202 186 189 200 220 220 239 284 343 354 5 90 86 335 338 326 321 317 212 154 170 88 83 35 328 232 77 36 75 170 171 173 160 174 167 191 170 125 145 154
169 174 184 176 174 187 185 197 207 237 226 238 283 324 337 328 244 76 337 339 333 101 256 262 173 164 102 74 22 32 16 121 84 14 199 168 170 165 191 204 203 197 164 160 170
173 181 192 178 181 188 188 194 224 245 238 245 281 321 327 248 219 354 341 355 97 131 276 199 205 144 119 137 79 123 82 23 115 59 145 161 139 194 217 69 2 77 156 169 179
207 221 210 176 195 200 206 205 223 237 239 247 285 330 316 218 65 340 352 19 81 107 193 235 190 155 132 116 117 98 120 84 99 128 134 120 171 29 228 157 127 131 154 175 184
225 232 212 214 210 201 204 205 212 230 227 235 288 336 269 218 5 347 3 25 53 78 111 287 243 98 101 87 31 112 112 109 111 118 110 202 170 258 187 188 161 167 178 183 188
215 216 221 218 215 207 201 204 220 227 215 219 293 337 249 47 17 9 26 30 27 98 119 57 84 334 121 108 119 132 106 123 125 118 92 332 247 232 148 178 194 195 192 193 192
229 219 213 205 210 205 202 203 231 216 200 197 272 290 353 244 9 22 20 59 62 72 105 91 94 86 60 124 121 152 171 170 146 166 112 218 272 190 158 179 199 202 199 197 199
223 223 205 206 205 196 197 203 240 203 183 167 252 259 190 135 87 1 32 67 75 76 86 96 73 95 133 155 128 200 205 204 164 199 146 209 267 137 187 202 208 206 205 200 202
243 219 210 194 201 192 185 185 179 116 201 166 221 229 175 136 78 21 15 36 85 131 132 166 116 112 166 196 189 187 207 203 196 179 208 207 250 204 199 212 222 211 209 206 208
248 204 202 187 194 188 175 149 177 170 209 333 81 60 121 103 88 55 18 141 174 220 181 144 187 198 195 201 350 278 207 194 105 123 216 231 256 251 204 215 224 224 214 212 213
209 209 191 187 184 186 188 244 333 18 149 85 111 95 100 141 143 95 356 201 191 187 153 163 219 101 75 144 175 155 182 169 107 152 226 245 263 254 235 224 221 219 220 216 212
210 206 185 182 174 192 208 248 261 248 212 160 148 142 134 210 122 124 309 162 194 180 197 210 82 129 161 154 145 168 230 142 23 163 228 287 266 237 229 227 220 228 222 221 214
204 211 177 167 172 198 218 230 214 289 244 160 192 148 150 168 156 45 22 307 151 198 180 54 121 170 159 151 282 176 97 118 139 185 256 231 283 256 209 213 224 227 222 220 215
197 193 183 165 135 188 153 180 179 246 250 125 144 104 151 196 128 102 43 218 156 134 191 144 157 161 182 89 23 99 130 97 134 225 330 185 252 243 146 225 226 223 225 219 216
198 191 185 191 211 178 166 155 178 221 236 154 135 164 155 164 119 125 150 78 92 112 54 89 58 18 69 71 133 134 88 68 82 137 245 205 219 233 197 218 237 230 215 207 197
196 192 186 189 231 184 159 166 199 236 128 165 177 174 189 158 146 187 173 173 167 148 176 141 127 103 165 105 117 57 135 119 210 198 248 83 205 272 267 208 252 211 184 163 137
198 189 187 193 225 167 177 199 224 215 177 108 138 158 187 154 172 172 171 202 226 201 134 170 203 173 149 257 195 191 205 185 212 205 234 125 232 238 249 289 220 140 112 153 183
193 183 184 188 182 168 208 213 215 205 145 149 142 168 186 186 189 179 201 213 197 201 166 178 146 109 62 21 304 165 218 47 48 162 275 204 247 274 247 247 221 206 199 209 201
175 156 192 189 179 181 207 236 245 65 130 171 176 196 184 180 176 194 186 180 202 186 108 164 113 268 102 207 90 274 27 127 199 219 241 218 249 239 236 240 185 190 215 208 199
160 170 173 170 166 200 213 224 238 182 162 186 206 166 195 172 194 191 197 164 189 167 159 143 106 123 156 203 174 165 191 227 298 256 248 262 251 206 226 183 191 222 207 187 203
145 193 167 157 185 207 218 205 192 181 200 210 235 151 180 176 180 203 214 224 154 150 175 155 88 149 168 60 24 309 255 197 216 191 243 291 248 128 178 174 40 83 182 140 199
154 122 178 179 200 206 215 220 253 178 191 190 197 197 146 172 169 201 176 38 165 168 154 174 180 133 162 169 171 224 201 219 74 322 213 217 238 1 146 228 232 259 77 213 226
149 160 154 222 245 218 201 217 214 207 207 188 151 125 145 170 203 175 172 94 174 180 59 108 241 245 232 123 126 188 198 200 204 231 212 232 247 134 168 283 295 260 229 223 212
196 196 178 187 212 211 189 207 203 201 213 184 186 206 169 148 177 192 145 120 159 206 83 164 226 216 284 105 166 190 183 189 208 220 218 246 242 239 254 254 266 228 281 256 221
165 172 174 194 195 202 200 217 206 199 164 196 208 192 193 172 173 180 139 185 181 160 160 176 214 146 241 141 216 257 230 203 214 226 249 269 270 262 263 274 267 263 263 267 248
190 174 168 179 186 192 213 209 210 192 211 206 197 148 202 222 201 126 125 112 140 149 184 171 171 174 254 120 72 272 228 217 197 211 218 231 251 180 255 250 244 251 256 257 254